Regional Weather Roundup
Issued by NWS Sterling, VA

Home | Current Version | Previous Version | Text Only | Print | Product List | Glossary On
Versions: 1 2 3 4 5 6 7 8 9 10 11 12 13 14 15 16 17 18 19 20 21 22 23 24 25 26 27 28 29 30 31 32 33 34 35 36 37 38 39 40 41 42 43 44 45 46 47 48 49 50
000
ASUS41 KLWX 300510
RWRLWX

REGIONAL WEATHER ROUNDUP
NATIONAL WEATHER SERVICE BALTIMORE MD/WASHINGTON DC
100 AM EDT THU JUL 30 2015

Note: "FAIR" indicates few or no clouds below 12,000 feet
with no significant weather and/or obstructions to visibility.
 TC=TEMPERATURE CELSIUS

 * =Non NWS site. Station does not report precipitation (e.g. rain,
    snow, etc.), thunder, or fog.

DCZ001-MDZ009-015-VAZ040>042-051-053>054-300600-
WASHINGTON METRO

CITY           SKY/WX    TMP DP  RH WIND       PRES   REMARKS
WASHINGTON NAT MOCLDY    83  74  74 S10       29.96R
DULLES         MOCLDY    77  72  84 S5        29.96S
ANDREWS AFB    CLEAR     76  73  90 S8        29.96R
FT BELVOIR     PTCLDY    77  74  88 SE2       29.96R
QUANTICO       MOCLDY    81  75  82 S13       29.96S
COLLEGE PARK*  MOCLDY    81  73  78 S5        29.95R
LEESBURG*      PTCLDY    77  73  88 S13       29.97S
MANASSAS*      CLOUDY    77  73  88 CALM      29.96S
GAITHERSBURG*  PTCLDY    77  70  78 CALM      30.00S

$$

MDZ006>007-011-014-300600-
BALTIMORE METRO

CITY           SKY/WX    TMP DP  RH WIND       PRES   REMARKS
BWI AIRPORT    PTCLDY    77  74  90 CALM      29.95S
MD SCIENCE CTR   N/A     79  74  84 MISG      29.95S
MARTIN STATE   MOCLDY    81  77  89 S7        29.96S
ANNAPOLIS      MOCLDY    80  72  76 S7        29.95S
FORT MEADE*    CLOUDY    72  70  94 CALM      29.98S

$$

MDZ012-015-019>023-300600-
MARYLAND EASTERN SHORE

CITY           SKY/WX    TMP DP  RH WIND       PRES   REMARKS
OCEAN CITY     CLEAR     78  73  84 SW7       29.98F
SALISBURY      CLEAR     75  72  90 S8        29.98F
BAY BRIDGE AP*   N/A     81  72  74 S7        29.96S
CAMBRIDGE*     CLEAR     79  72  78 S6        29.97S
EASTON*        CLEAR     80  76  88 S6        30.00S

$$

MDZ017>025-300600-
SOUTHERN MARYLAND

CITY           SKY/WX    TMP DP  RH WIND       PRES   REMARKS
PATUXENT RIVER PTCLDY    77  73  87 S7        29.97S
ST INIGOES     PTCLDY    80  73  79 S9        29.97S
LEONARDTOWN*   PTCLDY    77  70  78 CALM      29.99S

$$

MDZ003>005-300600-
NORTH CENTRAL MARYLAND

CITY           SKY/WX    TMP DP  RH WIND       PRES   REMARKS
FREDERICK*     MOCLDY    75  73  94 CALM      29.98R
HAGERSTOWN APT CLEAR     79  73  82 S6        29.95S
WESTMINSTER*   CLOUDY    79  73  83 S5        29.98R

$$

MDZ501>502-300600-
WESTERN MARYLAND

CITY           SKY/WX    TMP DP  RH WIND       PRES   REMARKS
OAKLAND*       MOCLDY    68 N/A N/A S5        30.08S FOG
CUMBERLAND*    MOCLDY    77  73  88 CALM      29.99F

$$

VAZ025>031-300600-
SHENANDOAH VALLEY

CITY           SKY/WX    TMP DP  RH WIND       PRES   REMARKS
WINCHESTER*    CLEAR     77  75  94 CALM      29.96R
FRONT ROYAL*   FAIR      75  73  94 CALM      29.95S
LURAY*         CLOUDY    79  77  94 CALM      29.98S
NEW MARKET*    FAIR      78  73  85 W6        29.96S
STAUNTON*      PTCLDY    77  73  86 CALM      30.03S
WAYNESBORO*    FAIR      73  72  97 SW5       30.02S

$$

WVZ021-048>050-054>055-300600-
EASTERN WEST VIRGINIA PANHANDLE

CITY           SKY/WX    TMP DP  RH WIND       PRES   REMARKS
MARTINSBURG    CLEAR     74  72  93 CALM      29.95S FOG
PETERSBURG*    PTCLDY   N/A N/A N/A CALM      29.99S

$$

VAZ036>039-050-300600-
CENTRAL FOOTHILLS

CITY           SKY/WX    TMP DP  RH WIND       PRES   REMARKS
CHARLOTTESVILL PTCLDY    78  73  84 S7        29.98S
CULPEPER*      CLEAR     75  73  93 CALM      29.97S
ORANGE*        CLEAR     75  73  94 S3        29.99S
GORDONSVILLE*  FAIR      73  73 100 CALM      29.97S FOG
WARRENTON*     FAIR      75  73  96 CALM      29.97R

$$

VAZ055>057-300600-
NORTH AND CENTRAL PIEDMONT

CITY           SKY/WX    TMP DP  RH WIND       PRES   REMARKS
FREDERICKSBRG* CLEAR     78  78 100 S3        29.96S
STAFFORD*      MOCLDY    74  72  91 CALM      30.01R

$$

NCZ024-NYZ072-PAZ021-071-VAZ022-071-300600-
OTHER REGIONAL OBSERVATIONS

CITY           SKY/WX    TMP DP  RH WIND       PRES   REMARKS
NEW YORK CITY  CLEAR     82  71  69 W10       29.96S
PHILADELPHIA   PTCLDY    81  73  76 S7        29.95S
PITTSBURGH     CLOUDY    77  70  79 S3        29.95R
ROANOKE        CLEAR     74  73  97 W3        30.04S
RICHMOND       PTCLDY    78  72  81 S8        29.98S
RALEIGH        PTCLDY    79  70  74 S3        30.00R

$$

ANZ530>537-300600-
MARINE OBSERVATIONS

STATION/POSITION TIME  TEMP    WIND        PRES
                       AIR SEA DIR/SP/G
                 (UTC) (F)     (DEG/KT/KT) (MB)
THOMAS PT LIGHT  NOT AVBL
BALT KEY BRIDGE  0400   80                   N/A
COVE POINT       0400   80                   N/A
LEWISETTA        0400   79                   N/A

$$



USA.gov is the U.S. government's official web portal to all federal, state and local government web resources and services.